| time (UTC) | temp C | wind direction | speed KPH | gust KPH | rain 1hr cm | rain 24hr cm | rain mn cm | humidity % | barometer mb |
| 20260507002515 | -17 | 1.6 | 9.7 | 0.00 | 0.00 | 0.00 | |||
| 20260507001514 | -17 | 355 | 1.6 | 11.3 | 0.00 | 0.00 | 0.00 | ||
| 20260507000516 | -17 | 8 | 0.0 | 9.7 | 0.00 | 0.00 | 0.00 | ||
| 20260506235536 | -17 | 8 | 1.6 | 11.3 | 0.00 | 0.00 | 0.00 | ||
| 20260506234514 | -17 | 3 | 3.2 | 11.3 | 0.00 | 0.00 | 0.00 | ||
| 20260506233516 | -17 | 12 | 4.8 | 11.3 | 0.00 | 0.00 | 0.00 | ||
| 20260506232516 | -17 | 14 | 3.2 | 8.0 | 0.00 | 0.00 | 0.00 | ||
| 20260506231516 | -17 | 13 | 1.6 | 12.9 | 0.00 | 0.00 | 0.00 | ||
| 20260506230517 | -17 | 31 | 3.2 | 19.3 | 0.00 | 0.00 | 0.00 | ||
| 20260506225538 | -17 | 29 | 3.2 | 16.1 | 0.00 | 0.00 | 0.00 | ||
| 20260506224517 | -17 | 17 | 1.6 | 11.3 | 0.00 | 0.00 | 0.00 | ||
| 20260506223516 | -17 | 19 | 3.2 | 12.9 | 0.00 | 0.00 | 0.00 | ||
| 20260506222518 | -17 | 20 | 4.8 | 12.9 | 0.00 | 0.00 | 0.00 | ||
| 20260506221516 | -17 | 17 | 1.6 | 9.7 | 0.00 | 0.00 | 0.00 | ||
| 20260506220516 | -17 | 0.0 | 4.8 | 0.00 | 0.00 | 0.00 | |||
| 20260506215517 | -17 | 17 | 1.6 | 11.3 | 0.00 | 0.00 | 0.00 | ||
| 20260506214515 | -17 | 0.0 | 9.7 | 0.00 | 0.00 | 0.00 | |||
| 20260506213515 | -17 | 16 | 0.0 | 1.6 | 0.00 | 0.00 | 0.00 | ||
| 20260506212515 | -17 | 0.0 | 9.7 | 0.00 | 0.00 | 0.00 | |||
| 20260506211515 | -17 | 16 | 1.6 | 9.7 | 0.00 | 0.00 | 0.00 | ||
| 20260506210537 | -17 | 16 | 1.6 | 9.7 | 0.00 | 0.00 | 0.00 | ||
| 20260506205515 | -17 | 15 | 3.2 | 12.9 | 0.00 | 0.00 | 0.00 | ||
| 20260506204517 | -17 | 10 | 1.6 | 12.9 | 0.00 | 0.00 | 0.00 | ||
| 20260506203515 | -17 | 1.6 | 11.3 | 0.00 | 0.00 | 0.00 | |||
| 20260506202516 | -17 | 350 | 1.6 | 9.7 | 0.00 | 0.00 | 0.00 | ||
| 20260506201535 | -17 | 0.0 | 0.0 | 0.00 | 0.00 | 0.00 | |||
| 20260506200515 | -17 | 0.0 | 0.0 | 0.00 | 0.00 | 0.00 | |||
| 20260506195517 | -17 | 0.0 | 0.0 | 0.00 | 0.00 | 0.00 | |||
| 20260506194515 | -17 | 0.0 | 0.0 | 0.00 | 0.00 | 0.00 | |||
| 20260506193515 | -17 | 0.0 | 0.0 | 0.00 | 0.00 | 0.00 | |||
| 20260506192515 | -17 | 0.0 | 0.0 | 0.00 | 0.00 | 0.00 | |||
| 20260506191535 | -17 | 0.0 | 0.0 | 0.00 | 0.00 | 0.00 | |||
| 20260506190515 | -17 | 0.0 | 0.0 | 0.00 | 0.00 | 0.00 | |||
| 20260506185515 | -17 | 0.0 | 0.0 | 0.00 | 0.00 | 0.00 | |||
| 20260506184518 | -17 | 0.0 | 0.0 | 0.00 | 0.00 | 0.00 | |||
| 20260506183516 | -17 | 0.0 | 0.0 | 0.00 | 0.00 | 0.00 | |||
| 20260506182515 | -17 | 0.0 | 0.0 | 0.00 | 0.00 | 0.00 | |||
| 20260506181515 | -17 | 0.0 | 0.0 | 0.00 | 0.00 | 0.00 | |||
| 20260506180515 | -17 | 17 | 0.0 | 9.7 | 0.00 | 0.00 | 0.00 | ||
| 20260506175516 | -17 | 36 | 1.6 | 17.7 | 0.00 | 0.00 | 0.00 | ||
| 20260506174515 | -17 | 29 | 1.6 | 16.1 | 0.00 | 0.00 | 0.00 | ||
| 20260506173515 | -17 | 31 | 1.6 | 9.7 | 0.00 | 0.00 | 0.00 | ||
| 20260506172516 | -17 | 34 | 1.6 | 11.3 | 0.00 | 0.00 | 0.00 | ||
| 20260506171517 | -17 | 36 | 4.8 | 11.3 | 0.00 | 0.00 | 0.00 | ||
| 20260506170515 | -17 | 40 | 0.0 | 1.6 | 0.00 | 0.00 | 0.00 | ||
| 20260506165517 | -17 | 40 | 0.0 | 6.4 | 0.00 | 0.00 | 0.00 | ||
| 20260506164515 | -17 | 0.0 | 0.0 | 0.00 | 0.00 | 0.00 | |||
| 20260506163517 | -17 | 347 | 0.0 | 6.4 | 0.00 | 0.00 | 0.00 | ||
| 20260506162516 | -17 | 42 | 0.0 | 4.8 | 0.00 | 0.00 | 0.00 | ||
| 20260506161538 | -17 | 45 | 0.0 | 8.0 | 0.00 | 0.00 | 0.00 | ||
| 20260506160514 | -17 | 69 | 0.0 | 9.7 | 0.00 | 0.00 | 0.00 | ||
| 20260506155516 | -17 | 69 | 0.0 | 11.3 | 0.00 | 0.00 | 0.00 | ||
| 20260506154516 | -17 | 0.0 | 1.6 | 0.00 | 0.00 | 0.00 | |||
| 20260506153516 | -17 | 22 | 0.0 | 11.3 | 0.00 | 0.00 | 0.00 | ||
| 20260506152517 | -17 | 87 | 3.2 | 16.1 | 0.00 | 0.00 | 0.00 | ||
| 20260506151516 | -17 | 57 | 3.2 | 12.9 | 0.00 | 0.00 | 0.00 | ||
| 20260506150516 | -17 | 58 | 6.4 | 17.7 | 0.00 | 0.00 | 0.00 | ||
| 20260506145538 | -17 | 65 | 6.4 | 19.3 | 0.00 | 0.00 | 0.00 | ||
| 20260506144516 | 13 | 47 | 8.0 | 17.7 | 0.00 | 0.00 | 0.00 | 50 | |
| 20260506143518 | 13 | 44 | 11.3 | 20.9 | 0.00 | 0.00 | 0.00 | 50 | |
| 20260506142516 | 13 | 52 | 11.3 | 25.7 | 0.00 | 0.00 | 0.00 | 48 | |
| 20260506141516 | 13 | 61 | 9.7 | 20.9 | 0.00 | 0.00 | 0.00 | 48 | |
| 20260506140516 | -17 | 61 | 3.2 | 19.3 | 0.00 | 0.00 | 0.00 | ||
| 20260506135516 | -17 | 50 | 12.9 | 25.7 | 0.00 | 0.00 | 0.00 | ||
| 20260506134516 | -17 | 39 | 9.7 | 22.5 | 0.00 | 0.00 | 0.00 | ||
| 20260506133516 | 13 | 30 | 12.9 | 27.4 | 0.00 | 0.00 | 0.00 | 50 | |
| 20260506132516 | 13 | 33 | 12.9 | 29.0 | 0.00 | 0.00 | 0.00 | 50 | |
| 20260506131537 | 13 | 36 | 11.3 | 25.7 | 0.00 | 0.00 | 0.00 | 51 | |
| 20260506130516 | -17 | 56 | 9.7 | 29.0 | 0.00 | 0.00 | 0.00 | ||
| 20260506125516 | -17 | 39 | 12.9 | 27.4 | 0.00 | 0.00 | 0.00 | ||
| 20260506124516 | -17 | 33 | 11.3 | 25.7 | 0.00 | 0.00 | 0.00 | ||
| 20260506123536 | -17 | 36 | 11.3 | 20.9 | 0.00 | 0.00 | 0.00 | ||
| 20260506122516 | -17 | 39 | 11.3 | 32.2 | 0.00 | 0.00 | 0.00 | ||
| 20260506121518 | -17 | 43 | 12.9 | 25.7 | 0.00 | 0.00 | 0.00 | ||
| 20260506120516 | 13 | 43 | 14.5 | 27.4 | 0.00 | 0.00 | 0.00 | 47 | |
| 20260506115516 | 13 | 51 | 8.0 | 22.5 | 0.00 | 0.00 | 0.00 | 47 | |
| 20260506114516 | 13 | 66 | 6.4 | 20.9 | 0.00 | 0.00 | 0.00 | 47 | |
| 20260506113518 | 13 | 41 | 6.4 | 30.6 | 0.00 | 0.00 | 0.00 | 47 | |
| 20260506112557 | 13 | 35 | 4.8 | 20.9 | 0.00 | 0.00 | 0.00 | 48 | |
| 20260506111536 | 13 | 35 | 9.7 | 27.4 | 0.00 | 0.00 | 0.00 | 51 | |
| 20260506110516 | -17 | 24 | 9.7 | 17.7 | 0.00 | 0.00 | 0.00 | ||
| 20260506105536 | -17 | 37 | 8.0 | 20.9 | 0.00 | 0.00 | 0.00 | ||
| 20260506104516 | -17 | 36 | 9.7 | 20.9 | 0.00 | 0.00 | 0.00 | ||
| 20260506103516 | 13 | 43 | 8.0 | 19.3 | 0.00 | 0.00 | 0.00 | 52 | |
| 20260506102516 | 13 | 49 | 4.8 | 16.1 | 0.00 | 0.00 | 0.00 | 51 | |
| 20260506101516 | 13 | 57 | 8.0 | 22.5 | 0.00 | 0.00 | 0.00 | 50 | |
| 20260506100539 | 14 | 55 | 11.3 | 27.4 | 0.00 | 0.00 | 0.00 | 50 | |
| 20260506095516 | 14 | 49 | 11.3 | 25.7 | 0.00 | 0.00 | 0.00 | 49 | |
| 20260506094515 | 13 | 41 | 11.3 | 25.7 | 0.00 | 0.00 | 0.00 | 48 | |
| 20260506093517 | 13 | 51 | 9.7 | 29.0 | 0.00 | 0.00 | 0.00 | 49 | |
| 20260506092517 | -17 | 49 | 8.0 | 22.5 | 0.00 | 0.00 | 0.00 | ||
| 20260506091516 | 13 | 24 | 9.7 | 25.7 | 0.00 | 0.00 | 0.00 | 50 | |
| 20260506090516 | 13 | 40 | 11.3 | 30.6 | 0.00 | 0.00 | 0.00 | 50 | |
| 20260506085516 | 13 | 57 | 9.7 | 25.7 | 0.00 | 0.00 | 0.00 | 51 | |
| 20260506084517 | 13 | 41 | 9.7 | 29.0 | 0.00 | 0.00 | 0.00 | 53 | |
| 20260506083517 | 12 | 38 | 11.3 | 25.7 | 0.00 | 0.00 | 0.00 | 56 | |
| 20260506082516 | 12 | 51 | 9.7 | 29.0 | 0.00 | 0.00 | 0.00 | 59 | |
| 20260506081515 | 12 | 51 | 8.0 | 22.5 | 0.00 | 0.00 | 0.00 | 59 | |
| 20260506080517 | -17 | 40 | 11.3 | 30.6 | 0.00 | 0.00 | 0.00 | ||
| 20260506072517 | -17 | 13 | 8.0 | 20.9 | 0.00 | 0.00 | 0.00 | ||
| 20260506071515 | -17 | 24 | 9.7 | 19.3 | 0.00 | 0.00 | 0.00 | ||
| 20260506070515 | -17 | 15 | 4.8 | 24.1 | 0.00 | 0.00 | 0.00 | ||
| 20260506062515 | -17 | 17 | 9.7 | 19.3 | 0.00 | 0.00 | 0.00 | ||
| 20260506061517 | -17 | 17 | 6.4 | 16.1 | 0.00 | 0.00 | 0.00 | ||
| 20260506060517 | -17 | 8 | 1.6 | 11.3 | 0.00 | 0.00 | 0.00 | ||
| 20260506050517 | -17 | 358 | 3.2 | 19.3 | 0.00 | 0.00 | 0.00 | ||
| 20260506044515 | -17 | 13 | 4.8 | 16.1 | 0.00 | 0.00 | 0.00 | ||
| 20260506043517 | -17 | 8 | 3.2 | 12.9 | 0.00 | 0.00 | 0.00 | ||
| 20260506042516 | -17 | 11 | 1.6 | 11.3 | 0.00 | 0.00 | 0.00 | ||
| 20260506041515 | -17 | 359 | 1.6 | 11.3 | 0.00 | 0.00 | 0.00 | ||
| 20260506040537 | -17 | 353 | 1.6 | 16.1 | 0.00 | 0.00 | 0.00 | ||
| 20260506035515 | -17 | 18 | 4.8 | 14.5 | 0.00 | 0.00 | 0.00 | ||
| 20260506034515 | -17 | 16 | 3.2 | 11.3 | 0.00 | 0.00 | 0.00 | ||
| 20260506033515 | -17 | 17 | 0.0 | 11.3 | 0.00 | 0.00 | 0.00 | ||
| 20260506032515 | -17 | 14 | 0.0 | 11.3 | 0.00 | 0.00 | 0.00 | ||
| 20260506031515 | -17 | 11 | 0.0 | 9.7 | 0.00 | 0.00 | 0.00 | ||
| 20260506030515 | -17 | 23 | 1.6 | 11.3 | 0.00 | 0.00 | 0.00 | ||
| 20260506025536 | -17 | 16 | 0.0 | 9.7 | 0.00 | 0.00 | 0.00 | ||
| 20260506024536 | -17 | 18 | 4.8 | 12.9 | 0.00 | 0.00 | 0.00 | ||
| 20260506023515 | -17 | 22 | 3.2 | 11.3 | 0.00 | 0.00 | 0.00 | ||
| 20260506022516 | -17 | 33 | 9.7 | 19.3 | 0.00 | 0.00 | 0.00 | ||
| 20260506021515 | -17 | 19 | 8.0 | 20.9 | 0.00 | 0.00 | 0.00 | ||
| 20260506020516 | -17 | 36 | 1.6 | 11.3 | 0.00 | 0.00 | 0.00 | ||
| 20260506015514 | -17 | 33 | 4.8 | 17.7 | 0.00 | 0.00 | 0.00 | ||
| 20260506014516 | -17 | 28 | 6.4 | 17.7 | 0.00 | 0.00 | 0.00 | ||
| 20260506013516 | -17 | 29 | 8.0 | 19.3 | 0.00 | 0.00 | 0.00 | ||
| 20260506012517 | -17 | 22 | 6.4 | 20.9 | 0.00 | 0.00 | 0.00 | ||
| 20260506011535 | -17 | 20 | 6.4 | 17.7 | 0.00 | 0.00 | 0.00 | ||
| 20260506010517 | -17 | 23 | 3.2 | 25.7 | 0.00 | 0.00 | 0.00 | ||
| 20260506005516 | -17 | 25 | 6.4 | 19.3 | 0.00 | 0.00 | 0.00 | ||
| 20260506004517 | -17 | 3 | 8.0 | 22.5 | 0.00 | 0.00 | 0.00 | ||
| 20260506003515 | -17 | 358 | 4.8 | 14.5 | 0.00 | 0.00 | 0.00 |